| time (UTC) | temp F | wind direction | speed knots | gust knots | rain 1hr in | rain 24hr in | rain mn in | humidity % | barometer mb |
| 20260503211528 | 84 | 165 | 3.5 | 8.7 | 0.00 | 0.00 | 0.00 | 47 | 1011.4 |
| 20260503210028 | 85 | 132 | 3.5 | 10.4 | 0.00 | 0.00 | 0.00 | 47 | 1011.6 |
| 20260503204530 | 85 | 182 | 1.7 | 9.6 | 0.00 | 0.00 | 0.00 | 43 | 1011.8 |
| 20260503203027 | 85 | 143 | 4.3 | 9.6 | 0.00 | 0.00 | 0.00 | 40 | 1011.9 |
| 20260503201527 | 86 | 178 | 5.2 | 10.4 | 0.00 | 0.00 | 0.00 | 41 | 1012.1 |
| 20260503200026 | 87 | 150 | 3.5 | 11.3 | 0.00 | 0.00 | 0.00 | 43 | 1012.3 |
| 20260503194524 | 87 | 176 | 2.6 | 10.4 | 0.00 | 0.00 | 0.00 | 40 | 1012.2 |
| 20260503193036 | 86 | 167 | 2.6 | 7.8 | 0.00 | 0.00 | 0.00 | 41 | 1012.5 |
| 20260503191520 | 86 | 94 | 3.5 | 9.6 | 0.00 | 0.00 | 0.00 | 42 | 1012.8 |
| 20260503190017 | 85 | 177 | 2.6 | 9.6 | 0.00 | 0.00 | 0.00 | 47 | 1012.8 |
| 20260503184523 | 84 | 146 | 3.5 | 9.6 | 0.00 | 0.00 | 0.00 | 45 | 1013.1 |
| 20260503183016 | 84 | 157 | 4.3 | 10.4 | 0.00 | 0.00 | 0.00 | 50 | 1013.1 |
| 20260503181517 | 83 | 182 | 2.6 | 10.4 | 0.00 | 0.00 | 0.00 | 56 | 1013.1 |
| 20260503180019 | 84 | 182 | 1.7 | 9.6 | 0.00 | 0.00 | 0.00 | 61 | 1013.0 |
| 20260503174515 | 83 | 111 | 1.7 | 7.8 | 0.00 | 0.00 | 0.00 | 67 | 1013.1 |
| 20260503173022 | 83 | 169 | 2.6 | 9.6 | 0.00 | 0.00 | 0.00 | 69 | 1013.1 |
| 20260503171521 | 83 | 162 | 4.3 | 8.7 | 0.00 | 0.00 | 0.00 | 70 | 1013.1 |
| 20260503081602 | 65 | 22 | 0.0 | 1.7 | 0.00 | 0.00 | 0.00 | 66 | 1011.1 |
| 20260503080106 | 66 | 23 | 0.0 | 0.9 | 0.00 | 0.00 | 0.00 | 66 | 1011.3 |
| 20260503071604 | 65 | 36 | 0.0 | 1.7 | 0.00 | 0.00 | 0.00 | 67 | 1011.9 |
| 20260503070110 | 66 | 36 | 0.0 | 0.0 | 0.00 | 0.00 | 0.00 | 67 | 1012.0 |
| 20260503060112 | 68 | 36 | 0.0 | 0.0 | 0.00 | 0.00 | 0.00 | 62 | 1012.0 |
| 20260503054547 | 68 | 36 | 0.0 | 0.9 | 0.00 | 0.00 | 0.00 | 62 | 1011.9 |
| 20260503053049 | 69 | 36 | 0.0 | 1.7 | 0.00 | 0.00 | 0.00 | 61 | 1011.8 |
| 20260503051549 | 69 | 98 | 0.0 | 1.7 | 0.00 | 0.00 | 0.00 | 60 | 1011.5 |
| 20260503050046 | 69 | 141 | 0.0 | 0.9 | 0.00 | 0.00 | 0.00 | 60 | 1011.4 |
| 20260503044546 | 70 | 142 | 0.0 | 0.0 | 0.00 | 0.00 | 0.00 | 60 | 1011.5 |
| 20260503043046 | 71 | 142 | 0.9 | 1.7 | 0.00 | 0.00 | 0.00 | 60 | 1011.3 |
| 20260503041545 | 73 | 142 | 0.0 | 0.0 | 0.00 | 0.00 | 0.00 | 56 | 1011.0 |
| 20260503040048 | 73 | 142 | 0.0 | 0.9 | 0.00 | 0.00 | 0.00 | 56 | 1010.8 |
| 20260503034551 | 73 | 138 | 0.0 | 1.7 | 0.00 | 0.00 | 0.00 | 56 | 1010.7 |
| 20260503033049 | 73 | 138 | 0.0 | 0.9 | 0.00 | 0.00 | 0.00 | 55 | 1010.6 |
| 20260503031543 | 73 | 138 | 0.0 | 0.0 | 0.00 | 0.00 | 0.00 | 54 | 1010.3 |
| 20260503030042 | 74 | 138 | 0.0 | 0.0 | 0.00 | 0.00 | 0.00 | 53 | 1010.4 |
| 20260503024542 | 74 | 138 | 0.0 | 0.0 | 0.00 | 0.00 | 0.00 | 53 | 1010.3 |
| 20260503023043 | 75 | 138 | 0.0 | 0.9 | 0.00 | 0.00 | 0.00 | 51 | 1010.0 |
| 20260503021541 | 76 | 138 | 0.0 | 2.6 | 0.00 | 0.00 | 0.00 | 52 | 1009.9 |
| 20260503020040 | 77 | 134 | 0.0 | 2.6 | 0.00 | 0.00 | 0.00 | 49 | 1009.8 |
| 20260503014542 | 78 | 134 | 0.9 | 3.5 | 0.00 | 0.00 | 0.00 | 47 | 1009.5 |
| 20260503013049 | 79 | 107 | 0.9 | 2.6 | 0.00 | 0.00 | 0.00 | 45 | 1009.5 |
| 20260503011543 | 81 | 119 | 0.9 | 4.3 | 0.00 | 0.00 | 0.00 | 41 | 1009.3 |
| 20260503010054 | 81 | 163 | 1.7 | 6.1 | 0.00 | 0.00 | 0.00 | 37 | 1009.2 |
| 20260503004538 | 82 | 120 | 1.7 | 6.1 | 0.00 | 0.00 | 0.00 | 36 | 1009.3 |
| 20260503003037 | 82 | 132 | 1.7 | 7.0 | 0.00 | 0.00 | 0.00 | 36 | 1009.1 |
| 20260503001536 | 82 | 149 | 2.6 | 7.0 | 0.00 | 0.00 | 0.00 | 37 | 1009.1 |
| 20260503000035 | 83 | 153 | 2.6 | 7.0 | 0.00 | 0.00 | 0.00 | 41 | 1009.1 |
| 20260502234538 | 83 | 144 | 2.6 | 7.8 | 0.00 | 0.00 | 0.00 | 42 | 1009.1 |
| 20260502233031 | 83 | 196 | 3.5 | 8.7 | 0.00 | 0.00 | 0.00 | 44 | 1009.1 |
| 20260502231531 | 83 | 173 | 1.7 | 7.8 | 0.00 | 0.00 | 0.00 | 48 | 1009.0 |
| 20260502230031 | 83 | 148 | 3.5 | 7.8 | 0.00 | 0.00 | 0.00 | 51 | 1009.3 |
| 20260502224529 | 84 | 170 | 2.6 | 7.8 | 0.00 | 0.00 | 0.00 | 52 | 1009.3 |
| 20260502223028 | 84 | 132 | 4.3 | 8.7 | 0.00 | 0.00 | 0.00 | 54 | 1009.5 |
| 20260502221527 | 84 | 123 | 3.5 | 9.6 | 0.00 | 0.00 | 0.00 | 55 | 1009.5 |
| 20260502220027 | 84 | 118 | 2.6 | 9.6 | 0.00 | 0.00 | 0.00 | 56 | 1009.7 |
| 20260502214535 | 84 | 165 | 2.6 | 7.8 | 0.00 | 0.00 | 0.00 | 57 | 1009.8 |
| 20260502213028 | 84 | 138 | 4.3 | 9.6 | 0.00 | 0.00 | 0.00 | 58 | 1010.1 |